Aérodrome :
LOGIN :

S'inscrire | Disclaimer

   EN    FR    IT 

 










Légende :    VFR   VFR Marginal   IFR   IFR Intensif   IFR Très Intensif
Visi : 
Plafond : 
>= 8 km
>= 3000ft
5 à 8 km
1000 à 3000 ft
1500m à 5 km
500 à 1000 ft
800 à 1500m
200 à 500 ft
< 800m
< 200 ft
Symboles :   Orages  Brouillard  Fortes neiges  Fortes précipitations  Vent > 20 kt
SIGMETs :   Divers  Orages  Givrage  Turbulence  Onde Orograph.  Cendres Volcan.







- Altitude de l'aérodrome : 228 ft
- Code IATA : OPO


LPPR - Porto Fr. Sa Carneiro

DERNIER METAR :
  • 161700Z 33012KT CAVOK 21/16 Q1022

METARs EXPIRÉS :
  • 161630Z 34015KT CAVOK 21/17 Q1022
  • 161600Z 33013KT CAVOK 21/16 Q1022
  • 161530Z 34013KT CAVOK 21/16 Q1022
  • 161500Z 33013KT 290V360 CAVOK 22/16 Q1022
  • 161430Z 33014KT CAVOK 21/16 Q1022

TAF TAF LPPR
Valide du 16 à 12h jusqu'au 17 à 12h UTC


161100Z 1612/1712 33012KT CAVOK
BECMG 1618/1621 36005KT
PROB40 1703/1708 3000 BR SCT003
BECMG 1709/1712 34012KT
Pas de NOTAMs connus pour ce terrain.



MET'MAP, la Météo Aéronautique d'un coup d'oeil ! - Copyright ORBIFLY Décembre 2007 - Disclaimer

ORBIFLY MET'MAP TEAM :

Programmation & Développement : Alexandra Zaïnal
Conception & Développement : Baudouin d'Aumeries
Co-Programmation & Développement : Marc-Olivier Méhu
Soutien technique & logistique : Manuel Goepfert

Contact : metmap@orbifly.com




SOURCES & CREDITS :

   NOAA